Regional Weather Roundup
Issued by NWS

Home | Current Version | Previous Version | Text Only | Print | Product List | Glossary On
Versions: 1 2 3 4 5 6 7 8 9 10 11 12 13 14 15 16 17 18 19 20 21 22 23 24 25 26 27 28 29 30 31 32 33 34 35 36 37 38 39 40 41 42 43 44 45 46 47 48 49 50
000
ASUS43 KFSD 200810
RWRSD

WEATHER ROUNDUP FOR SOUTH DAKOTA
NATIONAL WEATHER SERVICE SIOUX FALLS SD
200 AM CST MON FEB 20 2017

NOTE: "FAIR" INDICATES FEW OR NO CLOUDS BELOW 12,000 FEET WITH NO
SIGNIFICANT WEATHER AND/OR OBSTRUCTIONS TO VISIBILITY.


SDZ001>005-009-010-012>017-200900-
NORTHWEST AND NORTH CENTRAL SOUTH DAKOTA

CITY           SKY/WX    TMP DP  RH WIND       PRES   REMARKS
BUFFALO          N/A     44  36  73 NW15      29.55R
FAITH            N/A     51  39  63 W12       29.53R
MOBRIDGE       CLOUDY    44  34  67 SE7       29.50S
$$

SDZ012>016-024>037-041>051-057-063-072>074-200900-
SOUTHWEST AND SOUTH CENTRAL SOUTH DAKOTA

CITY           SKY/WX    TMP DP  RH WIND       PRES   REMARKS
RAPID CTY ARPT LGT RAIN  49  38  65 N23G30    29.59R
PIERRE         PTCLDY    49  41  74 E3        29.53S
CUSTER         CLOUDY    41  30  65 W9        29.61F
ELLSWORTH AFB  LGT RAIN  49  38  65 NW20      29.60
PHILIP         MOCLDY    46  37  71 NW3       29.56R
PINE RIDGE     PTCLDY    44  37  76 SW5       29.63R
SPEARFISH      FAIR      46  34  61 NW13      29.65R
WINNER         FAIR      59  49  69 S16       29.57F
$$

SDZ004>011-016>023-039-040-200900-
NORTHEAST SOUTH DAKOTA

CITY           SKY/WX    TMP DP  RH WIND       PRES   REMARKS
ABERDEEN       CLOUDY    52  46  80 S21       29.57F
WATERTOWN      CLOUDY    48  46  93 S13       29.64F
BROOKINGS      CLOUDY    50  48  93 S10       29.68F
SISSETON         N/A     55  49  80 S18       29.62S
$$

SDZ017-020-022-023-036>040-048>070-200900-
SOUTHEAST SOUTH DAKOTA

CITY           SKY/WX    TMP DP  RH WIND       PRES   REMARKS
SIOUX FALLS    CLOUDY    54  51  90 S15       29.69F
HURON          CLOUDY    53  49  86 S12       29.61R
CHAMBERLAIN    CLOUDY    58  51  77 S12       29.58S
MITCHELL       CLOUDY    54  50  86 S14       29.64R
YANKTON        CLOUDY    54  48  82 SE12      29.68S
$$

ABBREVIATIONS USED IN REMARKS
   TC - TEMPERATURE IN CELSIUS
  WCI - WIND CHILL INDEX
   HX - HEAT INDEX
  VSB - VISIBILITY





USA.gov is the U.S. government's official web portal to all federal, state and local government web resources and services.